Regional Weather Roundup
Issued by NWS

Home | Current Version | Previous Version | Graphics & Text | Print | Product List | Glossary Off
Versions: 1 2 3 4 5 6 7 8 9 10 11 12 13 14 15 16 17 18 19 20 21 22 23 24 25 26 27 28 29 30 31 32 33 34 35 36 37 38 39 40 41 42 43 44 45 46 47 48 49 50

000
ASUS43 KFSD 250110
RWRSD

WEATHER ROUNDUP FOR SOUTH DAKOTA
NATIONAL WEATHER SERVICE SIOUX FALLS SD
700 PM CST FRI FEB 24 2017

NOTE: "FAIR" INDICATES FEW OR NO CLOUDS BELOW 12,000 FEET WITH NO
SIGNIFICANT WEATHER AND/OR OBSTRUCTIONS TO VISIBILITY.


SDZ001>005-009-010-012>017-250200-
NORTHWEST AND NORTH CENTRAL SOUTH DAKOTA

CITY           SKY/WX    TMP DP  RH WIND       PRES   REMARKS
BUFFALO          N/A     29  11  47 CALM      29.98S
FAITH            N/A     22  15  75 E7        30.07F WCI  13
MOBRIDGE       CLEAR     23  13  65 MISG      30.09S
$$

SDZ012>016-024>037-041>051-057-063-072>074-250200-
SOUTHWEST AND SOUTH CENTRAL SOUTH DAKOTA

CITY           SKY/WX    TMP DP  RH WIND       PRES   REMARKS
RAPID CTY ARPT CLOUDY    20  14  77 S5        30.06S WCI  13
PIERRE         CLEAR     24  12  60 N7        30.11R WCI  16
CUSTER         CLOUDY    14  10  84 SW5       29.92S WCI   6
ELLSWORTH AFB  CLOUDY    21  16  83 S6        30.04S WCI  13
PHILIP         CLOUDY    22  12  65 N6        30.11R WCI  14
PINE RIDGE     CLOUDY    11   8  88 SW3       30.07S
SPEARFISH      CLOUDY    23  18  80 CALM      30.01S
WINNER         FAIR      23  14  68 NW8       30.11R WCI  14
$$

SDZ004>011-016>023-039-040-250200-
NORTHEAST SOUTH DAKOTA

CITY           SKY/WX    TMP DP  RH WIND       PRES   REMARKS
ABERDEEN       CLEAR     22  14  71 N12       30.11R WCI  10
WATERTOWN      CLOUDY    20  12  71 N24       30.01R WCI   3
BROOKINGS      FLURRIES  22  14  71 N20G28    29.99R WCI   7
SISSETON         N/A     22  15  75 N20       30.06R WCI   7
$$

SDZ017-020-022-023-036>040-048>070-250200-
SOUTHEAST SOUTH DAKOTA

CITY           SKY/WX    TMP DP  RH WIND       PRES   REMARKS
SIOUX FALLS    CLOUDY    24  15  68 N22G32    29.99R WCI   9
HURON          CLOUDY    25  16  68 N16       30.08R WCI  12
CHAMBERLAIN    CLEAR     30  13  51 NW13      30.10R WCI  20
MITCHELL       PTCLDY    28  17  63 N15       30.07R WCI  16
YANKTON        CLOUDY    25  14  63 W10       30.02R WCI  15
$$

ABBREVIATIONS USED IN REMARKS
   TC - TEMPERATURE IN CELSIUS
  WCI - WIND CHILL INDEX
   HX - HEAT INDEX
  VSB - VISIBILITY





USA.gov is the U.S. government's official web portal to all federal, state and local government web resources and services.